STARLINK-31589, 59654

Orbit data source: Space-Track

STARLINK-31589, 59654 is a payload satellite owned by SpaceX/Seattle (US) in LEO that was launched on Mon, 06 May 2024 UTC via an FALCON 9 launch vehicle from the Air Force Eastern Test Range (AFETR). Payload-class satellites include a variety of spacecraft equipped with specific instruments for various scientific and technological missions. These include communications satellites like Starlink; space stations such as the ISS; scientific satellites like the Hubble; Earth observation satellites from companies like Planet Labs, Umbra, and HawkEye 360; GPS; miniature CubeSats for education and research; and military/defense satellites.

Loading next visibility...
Identifier
59654, 2024-084A
Orbit
LEO
Country
Flag of USUS
Related business
Manufacturer
SpaceX/Seattle
Mission
Operational Commercial Communications
Bus & Motor
STARLINK V2M, Unknown motor
Mass
730 kg wet, ~700 kg dry
Launch date (UTC)
2024-05-06 (2 years ago)
Launch vehicle
FALCON 9
Launch site
Air Force Eastern Test Range (AFETR)
Object type
Payload
Rocket body
Debris
Shape & HBR
Box + 2 Pan, 17.7 m
Radar Cross Section
33.884 m², Large (>1 m²)

Expand to show TLE details & history
Last TLE update: 6 hours ago

TLE from 6 hours ago
0 STARLINK-31589
1 59654U 24084A   26073.51863923  .00000849  00000-0  40361-4 0  9991
2 59654  43.0009  14.3606 0001241 284.1503  75.9211 15.27579480105131
Epoch: 2026-03-14T12:26Z
TLE epoch observation values (Epoch: 2026-03-14T12:26:50.429Z)
Latitude
Longitude
15.51182°
Altitude
482.619 km
Speed
7.626 km/s
True Right ascension
00h 57m 26s
True Declination
0° 00' 00"
Sunlit
Object was in daylight at epoch
Visualization orbit readout
Latitude
Unknown
Longitude
Unknown
Altitude
Unknown
Speed
Unknown
Apparent Right ascension
Unknown
Apparent Declination
Unknown
Sunlit
N/A
Visualization observer readout
Local Sidereal Time
22:40:04
Azimuth
Unknown
Elevation
Unknown
Doppler factor
Unknown
Orbital elements
Apogee altitude
485.847 km
Perigee altitude
484.144 km
Semi-major axis
6,863.133 km
Eccentricity
0.00012
Inclination
43.0009°
RAAN
14.3606°
Arg. of periapsis
284.1503°
True anomaly
75.93489°
Mean anomaly
75.9211°
Eccentric anomaly
75.928°
Mean motion
3.81733 °/min
Orbital period
94.31 mins
BSTAR
0.000040361
Loading maneuver chart data...
Computing Atmospheric mass density...
Loading historical data...
Loading historical data...
Loading historical data...
Loading historical data...
Loading historical data...
Loading historical data...
Loading historical data...

Documentation

Showing up to 5 results
|